Location: Bishop�s Knoyle
(51.0728°N, 2.1714°W)
Time: 10:39:09
(UTC+00:00)

Daily predictions for brighter satellites

Satellite Brightness Start Highest point End
(mag) Time Altitude Azimuth Time Altitude Azimuth Time Altitude Azimuth
USA 102 3.9 18:40:27 10° SE 18:46:52 62° ENE 18:49:25 10° NNW
USA 229 DEB 4.3 18:42:33 10° WSW 18:49:02 59° NW 18:56:00 10° NE
USA 229 4.3 18:42:38 10° WSW 18:49:08 59° NW 18:56:05 10° NE
Cosmos 1782 Rocket 3.8 18:45:23 10° SSE 18:49:37 48° E 18:53:55 10° NNE
Cosmos 1975 2.9 18:46:38 10° S 18:50:39 59° E 18:54:42 10° NNE
Cosmos 2233 Rocket 4.0 18:44:38 10° S 18:50:51 75° E 18:57:03 10° NNE
Cosmos 1025 Rocket 4.1 18:47:05 10° N 18:50:51 27° ENE 18:54:36 10° SE
CZ-4 R/B 2.1 18:47:29 10° S 18:51:41 63° W 18:55:52 10° NNW
Cosmos 1908 Rocket 3.5 18:47:26 10° S 18:51:48 86° E 18:56:13 10° N
USA 186 3.0 18:49:56 10° ESE 18:52:32 24° ENE 18:55:13 10° N
Meteor 2-11 Rocket 4.5 18:47:23 10° S 18:53:27 65° E 18:59:34 10° NNE
Cosmos 1725 Rocket 4.4 18:49:24 10° SSW 18:55:40 71° WNW 19:01:56 10° N
Cosmos 1680 Rocket 4.5 18:53:45 10° NNW 18:58:49 52° WSW 19:03:52 10° S
Cosmos 2082 Rocket 4.3 18:57:23 10° N 18:59:36 12° NNE 19:01:49 10° NE
OPS 6432 4.4 18:57:21 10° NW 19:00:23 83° SW 19:04:07 10° SE
NOSS 3-1 (A) 4.0 18:55:35 10° WSW 19:01:12 60° NW 19:07:53 10° NE
Cosmos 1544 3.4 18:57:48 10° SSW 19:01:28 71° WNW 19:05:08 10° N
Cosmos 1937 Rocket 3.6 18:56:27 10° S 19:01:32 53° ESE 19:06:37 10° NNE
OBJECT-B 2.7 19:01:23 11° E 19:03:07 15° ENE 19:05:05 10° NNE
MOS 1 Rocket 3.4 18:58:55 10° NNE 19:03:16 44° E 19:07:25 10° S
Cosmos 1842 3.6 19:02:02 10° NNW 19:05:54 70° W 19:09:44 10° S
FREGAT/IRIS 3.7 19:05:32 13° ESE 19:07:04 20° ENE 19:09:07 10° NNE
Cosmos 1674 4.3 19:04:48 10° NNE 19:07:35 19° ENE 19:09:42 13° ESE
Cosmos 2297 Rocket 4.4 19:04:05 10° W 19:08:50 27° NW 19:13:36 10° NNE
Cosmos 1975 Rocket 3.0 19:06:31 10° N 19:10:53 88° W 19:15:12 10° S
NOSS 8 (H) 4.3 19:10:07 10° SSW 19:13:10 50° SE 19:16:07 10° NE
NOSS 8 (E) 4.0 19:10:05 10° SW 19:13:14 87° SE 19:16:17 10° NE
COSMO-SKYMED 1 4.2 19:09:24 10° N 19:13:28 39° WNW 19:17:29 10° SW
In-Cosmos 22 4.3 19:09:35 10° N 19:14:45 51° ENE 19:19:56 10° SSE
NOSS 2-2 (E) 3.7 19:13:48 10° S 19:17:03 36° ESE 19:20:42 10° NE
Cosmos 1707 2.7 19:16:34 10° N 19:20:25 65° ENE 19:24:14 10° SSE
Resurs 01 Rocket 3.1 19:19:17 15° E 19:21:35 21° ENE 19:24:57 10° N
H-2A R/B 2.2 19:16:50 10° S 19:21:47 73° WSW 19:26:53 10° NNW
ARGOS 3.2 19:17:37 10° SSE 19:22:59 89° ENE 19:28:24 10° NNW
CZ-2C R/B 3.2 19:18:33 10° NNE 19:23:42 39° E 19:28:53 10° SSE
SJ-6B 3.0 19:21:47 11° SE 19:25:14 46° ENE 19:28:53 10° N
NOSS 2-2 (D) 3.7 19:22:18 10° S 19:25:30 34° ESE 19:29:04 10° ENE
Sich 1 Rocket 3.5 19:23:20 10° S 19:27:48 71° E 19:32:21 10° NNE
Iridium 4 Rocket 4.3 19:23:51 10° SSW 19:28:43 55° W 19:34:05 10° N
MOS 1 4.4 19:24:17 10° SSE 19:29:53 63° ENE 19:35:32 10° N
Cosmos 1048 Rocket 4.3 19:24:43 10° NNW 19:29:55 53° ENE 19:34:10 15° SE
ATLAS CENTAUR R/B 3.7 19:28:42 10° WNW 19:31:30 19° NNW 19:34:14 10° NNE
CENTAUR R/B 3.4 19:24:05 10° NW 19:31:44 60° NE 19:38:33 17° ESE
ATLAS 3B R/B 3.7 19:31:28 10° NW 19:37:36 35° NNE 19:42:49 15° E
ARIANE 5 R/B 4.1 19:37:42 17° E 19:38:54 19° ENE 19:41:58 10° NNE
Cosmos 2263 Rocket 2.4 19:33:44 10° SW 19:39:18 75° WNW 19:44:56 10° NNE
SL-08 RB Rocket 3.7 19:34:45 10° SSE 19:39:21 87° WSW 19:43:57 10° NNW
USA 238 DEB 3.9 19:32:40 10° NW 19:39:51 77° NE 19:45:38 18° SE
USA 238 3.9 19:32:47 10° NW 19:39:57 77° NE 19:45:43 18° SE
ISS -2.5 19:38:25 10° SSW 19:41:10 24° SE 19:41:14 24° SE
Abrixas rocket 2.2 19:39:04 10° WSW 19:41:48 45° S 19:42:31 35° SE
SJ 16-02 3.4 19:39:18 10° WSW 19:43:11 30° NW 19:47:04 10° N
Cosmos 1513 Rocket 4.4 19:37:15 10° S 19:43:31 76° E 19:49:42 10° NNE
Cosmos 1844 Rocket 3.2 19:41:45 10° S 19:46:41 34° ESE 19:51:39 10° NE
Okean 2 Rocket 3.0 19:43:26 10° S 19:47:56 74° E 19:52:25 10° NNE
Lacrosse 5 rocket 2.4 19:47:07 10° W 19:51:17 45° NNW 19:55:13 12° ENE
Cosmos 1464 Rocket 3.9 19:45:32 10° S 19:51:39 83° E 19:57:51 10° NNE
Okean 1 Rocket 3.9 19:51:22 27° ESE 19:52:25 30° E 19:56:21 10° NNE
IRS-1A Rocket 4.5 19:48:29 10° SSE 19:54:23 81° WSW 20:00:18 10° NNW
Ariane Rocket 3.1 19:51:00 10° S 19:56:04 76° WSW 20:01:11 10° NNW
Cosmos 1092 Rocket 4.1 19:50:06 10° N 19:56:08 54° ENE 20:00:15 21° SE
Meteor 1-12 Rocket 4.3 19:53:18 10° S 19:59:14 88° E 20:05:06 10° NNE
Meteor 1-15 Rocket 4.4 19:54:03 10° SSE 19:59:26 50° E 20:04:57 10° NNE
Resurs 1-3 3.6 19:57:58 26° SE 20:00:18 62° ENE 20:04:41 10° N
Cosmos 1300 Rocket 3.5 19:56:31 10° S 20:00:56 86° WNW 20:05:24 10° N
Cosmos 494 Rocket 4.0 19:57:44 10° NNW 20:02:58 64° ENE 20:05:36 29° SE
Cosmos 2026 Rocket 4.3 19:57:28 10° N 20:03:37 48° ENE 20:06:56 26° SE
Meteor 2-13 Rocket 4.5 19:58:45 10° N 20:04:54 64° ENE 20:09:01 22° SSE
CZ-2C R/B 4.2 20:00:55 10° NNE 20:05:02 36° E 20:05:30 35° ESE
Cosmos 2298 Rocket 4.0 20:00:06 10° S 20:05:21 62° ESE 20:10:38 10° NNE
Cosmos 1833 Rocket 3.9 20:00:45 10° NNW 20:05:38 28° NE 20:07:47 22° ENE
SPOT 3 Rocket 3.5 20:03:38 24° SSE 20:06:41 68° ENE 20:11:49 10° N
NOSS 3-2 (A) 4.1 20:00:44 10° NW 20:08:07 79° SW 20:13:56 22° SSE
MetOp-A 4.3 20:03:47 11° S 20:09:02 77° WSW 20:14:26 10° NNW
NOSS 2-2 (C) 3.0 20:06:25 10° SW 20:09:56 85° SE 20:14:02 10° NE
Cosmos 1536 Rocket 3.9 20:10:31 10° NNW 20:14:56 66° W 20:18:27 16° S
Cosmos 1626 2.7 20:14:40 10° N 20:17:51 39° ENE 20:17:51 39° ENE
Terra 3.7 20:19:13 16° ENE 20:19:20 16° NE 20:22:09 10° NNE
CREW DRAGON DEMO-1 DEB 2.9 20:17:03 10° W 20:19:51 74° WNW 20:19:51 74° WNW
Cosmos 1892 Rocket 4.3 20:16:16 10° N 20:20:06 33° ENE 20:20:06 33° ENE
USA 186 4.0 20:20:36 10° SSW 20:23:11 24° W 20:25:53 10° NW
DMSP B5D2-2 4.1 20:20:49 10° NNE 20:26:09 83° WNW 20:31:26 10° SSW
USA 234 3.3 20:20:20 10° ENE 20:26:42 51° SE 20:33:03 10° SSW
Meteor 2-5 Rocket 3.6 20:22:25 10° N 20:28:03 78° ENE 20:30:35 35° SSE
Cosmos 1025 Rocket 4.5 20:24:31 10° NNW 20:28:33 37° W 20:32:35 10° SSW
Cosmos 2151 Rocket 4.0 20:24:47 10° SSW 20:29:12 62° WNW 20:33:41 10° N
Cosmos 372 Rocket 4.5 20:27:25 10° SW 20:32:37 61° WNW 20:37:49 10° NNE
OBJECT-B 1.8 20:34:35 38° SW 20:35:10 43° W 20:38:18 10° NNW
Cosmos 2150 Rocket 4.1 20:30:06 10° SSW 20:35:29 86° WNW 20:41:00 10° NNE
Cosmos 1805 3.1 20:35:57 81° E 20:35:57 81° E 20:39:52 10° NNE
SPOT 5 4.0 20:40:10 31° ENE 20:40:19 31° ENE 20:44:55 10° N
NOSS 3-2 (C) 4.1 20:34:53 10° NW 20:42:16 76° SW 20:46:12 35° SSE
Cosmos 1674 3.7 20:39:39 10° NNW 20:43:21 45° W 20:44:32 33° SW
Meteor 1-22 Rocket 4.3 20:43:04 46° SE 20:44:30 59° E 20:50:26 10° NNE
Cosmos 2082 Rocket 3.2 20:40:35 10° NNW 20:45:37 32° NE 20:46:33 30° ENE
Cosmos 1125 Rocket 3.4 20:40:55 10° SSW 20:46:13 82° ESE 20:51:35 10° NNE
Okean 1-7 Rocket 4.2 20:42:47 10° N 20:46:41 44° NE 20:46:41 44° NE
Cosmos 1733 4.0 20:52:18 43° NNE 20:52:18 43° NNE 20:54:59 10° NNE
SL-14 R/B 3.5 20:48:15 10° N 20:51:36 64° N 20:51:36 64° N
COSMOS 2406 3.2 20:47:50 10° NNW 20:53:31 65° ENE 20:54:20 57° E
Meteor 1-24 Rocket 3.6 20:49:25 10° NNW 20:54:55 86° W 20:56:22 52° S
CRYOSAT 2 4.2 20:52:05 10° N 20:57:00 75° E 20:57:02 75° E
ERS-1 Rocket 3.5 20:57:24 43° ENE 20:57:24 43° ENE 21:01:52 10° N
Resurs 01 Rocket 2.1 20:56:51 47° SW 20:57:44 57° W 21:02:09 10° NNW
Lacrosse 4 Rocket 2.9 20:59:20 10° NNW 21:02:11 26° NNE 21:02:11 26° NNE
Cosmos 2098 Rocket 4.2 20:55:46 10° N 21:02:56 56° ENE 21:03:50 52° ESE
CZ-2C R/B 4.0 20:58:54 10° N 21:04:00 41° WNW 21:09:11 10° SW
Landsat 7 3.7 21:04:40 87° ENE 21:04:40 87° ENE 21:09:28 10° NNW
Cosmos 2266 Rocket 4.3 20:59:46 10° N 21:05:35 45° ENE 21:05:35 45° ENE
Exosat Rocket 3.6 21:01:20 10° SSW 21:06:48 78° WNW 21:11:50 10° NNE
Cosmos 1766 4.0 21:09:00 51° NW 21:09:00 51° NW 21:12:25 10° N
ATLAS CENTAUR R/B 4.1 21:11:05 10° NNW 21:11:47 10° N 21:12:28 10° N
Cosmos 1655 Rocket 3.9 21:05:49 10° N 21:12:03 64° ENE 21:12:30 62° E
ATLAS 2AS CENTAUR R/B 3.1 21:04:28 10° SSW 21:12:04 52° ESE 21:19:38 10° NE
IGS 5A 4.0 21:13:37 57° NW 21:13:37 57° NW 21:17:02 10° NNW
SPOT 1/Viking Rocket 3.4 21:14:25 86° E 21:14:26 86° ENE 21:19:38 10° NNW
ARIANE 5 R/B 3.0 21:15:16 61° WNW 21:15:16 61° WNW 21:19:17 10° NNW
Cosmos 1844 3.9 21:12:51 10° SW 21:18:33 71° WNW 21:24:12 10° NNE
Cosmos 2278 Rocket 4.1 21:22:33 16° NE 21:22:33 16° NE 21:23:46 10° NE
Cosmos 1269 Rocket 4.4 21:16:16 10° NNW 21:21:29 56° WSW 21:21:56 54° SW
Cosmos 1634 Rocket 4.2 21:19:00 29° SSW 21:22:14 67° WNW 21:28:26 10° N
CENTAUR R/B 3.6 21:14:55 10° NW 21:22:42 55° WSW 21:25:44 39° S
Cosmos 2285 Rocket 4.3 21:21:29 10° SW 21:27:44 65° WNW 21:34:05 10° NNE
Spot 2 Rocket 3.7 21:28:19 66° W 21:28:19 66° W 21:33:17 10° NNW
ATLAS 3B R/B 2.6 21:22:19 10° NW 21:29:11 83° NE 21:30:03 70° ESE
Cosmos 1844 Rocket 3.5 21:25:00 10° SW 21:30:24 50° NW 21:35:52 10° NNE
Lacrosse 5 rocket 2.7 21:26:58 10° WNW 21:30:50 39° N 21:30:50 39° N
Cosmos 909 Rocket 4.0 21:40:12 10° NW 21:46:53 78° NE 21:46:53 78° NE
Cosmos 1833 Rocket 2.9 21:44:26 10° NNW 21:49:28 65° WNW 21:49:28 65° WNW
Cosmos 2180 Rocket 4.4 21:50:40 80° W 21:50:46 81° WNW 21:57:08 10° N
Cosmos 2251 Rocket 4.1 21:49:01 10° NNW 21:53:17 57° NNW 21:53:17 57° NNW
Terra 2.9 21:58:06 41° NNW 21:58:06 41° NNW 22:01:13 10° NNW
USA 234 3.3 22:06:55 35° NE 22:09:58 75° NNW 22:16:30 10° WSW
SPOT 5 4.1 22:19:24 41° WNW 22:19:24 41° WNW 22:23:18 10° NNW
Cosmos 2082 Rocket 3.2 22:24:32 10° NW 22:28:23 42° WNW 22:28:23 42° WNW
NOSS 3-4 (A) 4.3 22:41:29 46° NNE 22:41:29 46° NNE 22:46:15 10° NE
NOSS 3-4 (C) 4.3 22:41:40 45° NNE 22:41:40 45° NNE 22:46:22 10° NE
Lacrosse 4 Rocket 4.3 22:37:50 10° NW 22:38:29 14° NW 22:38:29 14° NW
CZ-4C R/B 4.5 23:02:00 17° NE 23:02:00 17° NE 23:03:22 10° NE
Cosmos 2278 Rocket 3.5 23:04:22 36° N 23:04:22 36° N 23:08:05 10° NNE
ATLAS 2AS CENTAUR R/B 3.4 22:59:08 31° WSW 23:03:09 60° NW 23:10:52 10° NE
ATLAS 3B R/B 4.3 23:13:37 10° WNW 23:17:17 24° W 23:17:17 24° W
NOSS 3-1 (C) 4.5 23:21:33 10° NW 23:28:23 51° NNE 23:28:49 51° NE
USA 234 4.1 23:46:19 10° ENE 23:54:28 42° NW 23:58:58 10° WNW
